Location: Capelle
(50.3413°N, 1.9974°E)
Time: 07:22:02
(UTC+00:00)

COSMO-SKYMED 1 - Pass Details

Date: 12 January 2026
Orbit: 577 x 579 km, 97.9° (Epoch: 18 February)

Event Time Altitude Azimuth Distance (km) Brightness Sun altitude
Exits shadow 18:46:30 43° 353° (N) 822 3.1 -23.7°
Maximum altitude 18:47:42 67° 288° (WNW) 632 2.7 -23.8°
Drops below altitude 10° 18:51:46 10° 205° (SSW) 1,890 5.4 -24.5°
Sets 18:53:55 0° 203° (SSW) 2,783 6.3 -24.8°
